Regional Weather Roundup
Issued by NWS

Home | Current Version | Previous Version | Text Only | Print | Product List | Glossary Off
Versions: 1 2 3 4 5 6 7 8 9 10 11 12 13 14 15 16 17 18 19 20 21 22 23 24 25 26 27 28 29 30 31 32 33 34 35 36 37 38 39 40 41 42 43 44 45 46 47 48 49 50

000
ASUS44 KMEG 201600
RWRTN
TENNESSEE HOURLY STATE WEATHER ROUNDUP
NATIONAL WEATHER SERVICE MEMPHIS TN
1100 AM CDT WED SEP 20 2017

TNZ002-004-019-021-049-052-054-088>092-201700-
WEST TENNESSEE

CITY           SKY/WX    TMP DP  RH WIND       PRES   REMARKS
MEMPHIS INTL   MOSUNNY   86  74  67 SW8       30.01S HX  94
NWS MEMPHIS      N/A     86 N/A N/A MISG        N/A
JACKSON        SUNNY     86  74  67 SW7       30.03S HX  94
DYERSBURG      MOSUNNY   86  75  69 S6        30.02S HX  95
$$

TNZ008-025-027-028-033-062-065-066-201700-
NORTH MIDDLE TENNESSEE

CITY           SKY/WX    TMP DP  RH WIND       PRES   REMARKS
NASHVILLE      MOSUNNY   82  70  66 S5        30.07S
CLARKSVILLE    SUNNY     82  71  69 SW5       30.04S
SMYRNA         SUNNY     81  72  74 SW3       30.07F
CROSSVILLE     SUNNY     78  67  68 NW6       30.14S
$$

TNZ061-075-076-078-094-096-097-201700-
SOUTH MIDDLE TENNESSEE

CITY           SKY/WX    TMP DP  RH WIND       PRES   REMARKS
MCMINNVILLE    SUNNY     82  72  69 VRB3      30.09S
$$

TNZ017-018-042-046-047-201700-
NORTHEAST TENNESSEE

CITY           SKY/WX    TMP DP  RH WIND       PRES   REMARKS
TRI CITIES     MOSUNNY   78  64  61 NW3       30.12S
$$

TNZ012-013-036-069-073-074-201700-
CENTRAL EAST TENNESSEE

CITY           SKY/WX    TMP DP  RH WIND       PRES   REMARKS
KNOXVILLE      MOSUNNY   76  65  68 VRB3      30.09F
OAK RIDGE      SUNNY     74  65  73 CALM      30.11F
GATLINBURG     SUNNY     81  61  50 NW5       30.09F
$$

TNZ083-085-099-201700-
SOUTHEAST TENNESSEE

CITY           SKY/WX    TMP DP  RH WIND       PRES   REMARKS
CHATTANOOGA    MOSUNNY   76  67  73 N3        30.09F
$$

SKY/WX REPORTED AS FAIR MEANS FEW OR NO CLOUDS BELOW
12 THOUSAND FEET.





USA.gov is the U.S. government's official web portal to all federal, state and local government web resources and services.